TimeIST,TemperatureF,Dew PointF,Humidity,Sea Level PressureIn,VisibilityMPH,Wind Direction,Wind SpeedMPH,Gust SpeedMPH,PrecipitationIn,Events,Conditions,WindDirDegrees,DateUTC
12:10 AM,64.4,60.8,88,29.92,2.2,NNE,4.6,-,N/A,,Haze,20,2012-12-02 18:40:00
12:40 AM,64.4,60.8,88,29.92,2.2,ENE,4.6,-,N/A,,Haze,60,2012-12-02 19:10:00
1:10 AM,62.6,59.0,88,29.89,2.2,ENE,4.6,-,N/A,,Haze,60,2012-12-02 19:40:00
1:40 AM,62.6,59.0,88,29.89,2.2,ENE,4.6,-,N/A,,Haze,60,2012-12-02 20:10:00
2:10 AM,62.6,59.0,88,29.89,2.2,ENE,3.5,-,N/A,,Haze,70,2012-12-02 20:40:00
2:30 AM,62,58,84,29.91,1,North,2.3,,,,Haze,0,2012-12-02 21:00:00
2:40 AM,62.6,59.0,88,29.89,2.2,ENE,3.5,-,N/A,,Haze,70,2012-12-02 21:10:00
3:10 AM,60.8,57.2,88,29.89,2.2,NE,4.6,-,N/A,,Haze,40,2012-12-02 21:40:00
3:40 AM,60.8,55.4,82,29.89,2.2,NE,4.6,-,N/A,,Haze,50,2012-12-02 22:10:00
4:10 AM,62.6,55.4,77,29.89,2.2,NE,4.6,-,N/A,,Haze,40,2012-12-02 22:40:00
4:40 AM,62.6,53.6,72,29.89,2.2,NE,4.6,-,N/A,,Haze,50,2012-12-02 23:10:00
5:10 AM,62.6,55.4,77,29.89,2.2,NNE,5.8,-,N/A,,Haze,30,2012-12-02 23:40:00
5:30 AM,66,57,65,29.91,1,North,3.5,,,,Haze,0,2012-12-03 00:00:00
5:40 AM,62.6,55.4,77,29.89,2.2,NE,5.8,-,N/A,,Haze,40,2012-12-03 00:10:00
6:10 AM,62.6,53.6,72,29.92,1.6,ENE,8.1,-,N/A,,Haze,70,2012-12-03 00:40:00
7:10 AM,64.4,53.6,68,29.92,1.6,NE,5.8,-,N/A,,Haze,50,2012-12-03 01:40:00
7:40 AM,66.2,53.6,64,29.95,1.2,ENE,5.8,-,N/A,,Haze,70,2012-12-03 02:10:00
8:10 AM,68.0,53.6,60,29.95,1.2,ENE,5.8,-,N/A,,Haze,70,2012-12-03 02:40:00
8:30 AM,69,57,56,29.98,2,East,4.6,,,,Haze,90,2012-12-03 03:00:00
8:40 AM,69.8,53.6,56,29.98,1.6,ENE,5.8,-,N/A,,Haze,70,2012-12-03 03:10:00
9:40 AM,73.4,55.4,53,29.98,1.9,ENE,6.9,-,N/A,,Smoke,70,2012-12-03 04:10:00
10:10 AM,77.0,57.2,50,29.98,2.2,East,5.8,-,N/A,,Smoke,80,2012-12-03 04:40:00
10:40 AM,78.8,57.2,47,29.98,2.5,East,6.9,-,N/A,,Smoke,80,2012-12-03 05:10:00
11:30 AM,81,61,40,29.99,2,East,6.9,,,,Smoke,90,2012-12-03 06:00:00
11:40 AM,82.4,59.0,45,29.98,3.1,SE,4.6,-,N/A,,Smoke,130,2012-12-03 06:10:00
12:40 PM,86.0,62.6,45,29.92,3.1,ESE,4.6,-,N/A,,Smoke,120,2012-12-03 07:10:00
1:10 PM,87.8,62.6,43,29.92,3.1,East,3.5,-,N/A,,Smoke,90,2012-12-03 07:40:00
1:40 PM,87.8,62.6,43,29.89,3.1,ESE,4.6,-,N/A,,Smoke,120,2012-12-03 08:10:00
2:10 PM,89.6,64.4,43,29.89,3.1,East,4.6,-,N/A,,Smoke,100,2012-12-03 08:40:00
2:30 PM,87,64,36,29.91,2,ESE,6.9,,,,Smoke,110,2012-12-03 09:00:00
2:40 PM,89.6,62.6,40,29.86,3.1,East,3.5,-,N/A,,Smoke,90,2012-12-03 09:10:00
3:10 PM,91.4,64.4,41,29.86,3.1,ESE,4.6,-,N/A,,Smoke,110,2012-12-03 09:40:00
3:40 PM,89.6,64.4,43,29.86,3.1,East,3.5,-,N/A,,Smoke,100,2012-12-03 10:10:00
4:10 PM,89.6,64.4,43,29.86,3.1,ESE,4.6,-,N/A,,Smoke,110,2012-12-03 10:40:00
4:40 PM,87.8,62.6,43,29.86,3.1,East,4.6,-,N/A,,Smoke,80,2012-12-03 11:10:00
5:30 PM,84,67,48,29.90,2,ESE,4.6,,,,Smoke,110,2012-12-03 12:00:00
5:40 PM,86.0,62.6,45,29.86,2.5,East,3.5,-,N/A,,Smoke,90,2012-12-03 12:10:00
6:10 PM,82.4,64.4,54,29.86,2.5,NE,4.6,-,N/A,,Smoke,40,2012-12-03 12:40:00
6:40 PM,80.6,64.4,58,29.89,2.5,NE,3.5,-,N/A,,Smoke,50,2012-12-03 13:10:00
7:10 PM,78.8,64.4,61,29.89,2.2,NNE,3.5,-,N/A,,Smoke,30,2012-12-03 13:40:00
7:40 PM,77.0,64.4,65,29.92,2.2,ENE,3.5,-,N/A,,Haze,60,2012-12-03 14:10:00
8:10 PM,77.0,64.4,65,29.92,2.2,NE,3.5,-,N/A,,Haze,50,2012-12-03 14:40:00
8:30 PM,74,67,72,29.94,2,Calm,Calm,,,,Haze,,2012-12-03 15:00:00
8:40 PM,77.0,64.4,65,29.92,2.2,ENE,3.5,-,N/A,,Haze,60,2012-12-03 15:10:00
9:10 PM,75.2,62.6,65,29.92,2.2,ENE,5.8,-,N/A,,Haze,60,2012-12-03 15:40:00
9:40 PM,75.2,62.6,65,29.92,2.2,ENE,4.6,-,N/A,,Haze,60,2012-12-03 16:10:00
10:40 PM,73.4,62.6,69,29.92,2.5,NE,3.5,-,N/A,,Haze,50,2012-12-03 17:10:00
11:10 PM,71.6,62.6,73,29.92,2.5,NE,3.5,-,N/A,,Haze,40,2012-12-03 17:40:00
11:30 PM,71,65,76,29.94,2,North,3.5,,,,Haze,0,2012-12-03 18:00:00
11:40 PM,71.6,62.6,73,29.92,2.5,NNE,3.5,-,N/A,,Haze,30,2012-12-03 18:10:00